Location: Strohbehn Observatory
(42.4649°N, 93.8239°W)
Time: 21:37:58
(UTC-05:00)

SL-16 R/B - Visible Passes

Search period start: 02 August 2015 00:00
Search period end: 12 August 2015 00:00
Orbit: 843 x 846 km, 71.0° (Epoch: 01 August)

Date Brightness Start Highest point End Pass type
(mag) Time Alt. Az. Time Alt. Az. Time Alt. Az.
05 Aug 4.7 05:29:22 10° SE 05:32:59 18° E 05:36:49 10° ENE visible
06 Aug 4.7 05:15:18 10° SE 05:18:47 17° E 05:22:31 10° ENE visible
07 Aug 4.7 05:01:15 10° SE 05:04:36 17° E 05:08:12 10° ENE visible
08 Aug 4.7 04:47:12 10° SE 04:50:25 16° E 04:53:53 10° ENE visible
09 Aug 4.7 04:33:10 10° SE 04:36:13 15° E 04:39:33 10° ENE visible
10 Aug 4.7 04:19:08 10° SE 04:22:02 15° E 04:25:13 10° ENE visible
11 Aug 4.7 04:05:07 10° SE 04:07:51 14° E 04:10:52 10° ENE visible
11 Aug 2.2 05:45:39 10° SSW 05:51:19 80° WNW 05:57:02 10° NNE visible
